Погода в Молоково

Россия / Тверская область     58°09′56″N   36°45′50″E
темп.,
°C
ветер,
м/с
пор.,
м/с
влажн.,
%
обл.,
%
осадки,
мм/ч
давл.,
гПа
погр.,
м
19 сентября, вс
вс1900:00+2всв388799 0.0 1028174
03:00+2в31083100 0.0 1027287
06:00+1всв31085100 0.0 1027279
09:00+5в5967100 0.0 1027791
12:00+7в6854100 0.0 10271059
15:00+8всв5860100 0.0 10261041
18:00+7в51063100 0.0 1025974
21:00+6в51168100 0.0 1025812
20 сентября, пн
пн2000:00+5в61270100 0.0 1025834
03:00+4всв61377100 0.0 1025666
06:00+4всв61377100 0.0 1025778
09:00+5всв71370100 0.0 1025867
12:00+6в71263100 0.0 10251035
15:00+7в71258100 0.0 10241085
18:00+5в61262100 0.0 1024942
21:00+5в6126588 0.0 1024842
21 сентября, вт
вт2100:00+4в51268100 0.0 1023775
03:00+4в61173100 0.0 1021781
06:00+3всв61396100 0.3 1020695
09:00+3в61297100 2.1 1019819
12:00+4в61397100 1.4 1019706
15:00+4в51297100 3.5 1019768
18:00+5в51094100 0.6 1019768
21:00+5в5995100 1.9 1019810
22 сентября, ср
ср2200:00+5всв4994100 1.8 1018780
03:00+6всв4895100 3.2 1018906
06:00+6всв4996100 0.8 1017855
09:00+5св51095100 0.9 1017777
12:00+6св51094100 0.5 1017763
15:00+5св51195100 2.1 1017748
18:00+6всв4996100 2.8 1017972
21:00+6в4894100 4.2 10161013
23 сентября, чт
чт2300:00+6в2795100 0.3 1015499
03:00+6вюв2597100 0.4 1015321
06:00+6вюв2599100 0.0 1015309
09:00+6вюв2698100 0.1 1015376
12:00+8юв3692100 0.1 1014599
15:00+9ююв3791100 0.2 1013535
18:00+8юв4992100 0.3 1012534
21:00+7ююв41094100 0.4 1012494